Weather History for KCKC - December, 2012

Change the Weather History Date:

Sunday, December 23, 2012

  Actual Average Record
Temperature  
Mean Temperature 6 °F -  
Max Temperature 12 °F 15 °F 33 °F (1997)
Min Temperature 1 °F 2 °F -18 °F (2004)
Degree Days  
Heating Degree Days 58    
Moisture  
Dew Point -1 °F    
Average Humidity 74    
Maximum Humidity 85    
Minimum Humidity 62    
Precipitation  
Precipitation 0.00 in - - ()
Sea Level Pressure  
Sea Level Pressure 29.95 in    
Wind  
Wind Speed 10 mph (NW)    
Max Wind Speed 20 mph    
Max Gust Speed 25 mph    
Visibility 9 miles    
Events Snow    
Averages and records for this station are not official NWS values.
T = Trace of Precipitation, MM = Missing Value Source: NWS Daily Summary

Daily Weather History Graph

Daily Weather History Graph

Search for Another Location

Airport or City:

Trip Planner

Search our weather history database for the weather conditions in past years. The results will help you decide how hot, cold, wet, or windy it might be!

Date:

Astronomy

Dec. 23, 2012 Rise Set
Actual Time 7:49 AM CST 4:12 PM CST
Civil Twilight 7:12 AM CST 4:49 PM CST
Nautical Twilight 6:33 AM CST 5:28 PM CST
Astronomical Twilight 5:55 AM CST 6:06 PM CST
Moon 1:12 PM CST (12/23) 3:21 AM CST (12/23)
Length of Visible Light 9h 36m
Length of Day
8h 23m
Waxing Gibbous, 82% of the Moon is Illuminated
Dec 23
Waxing Gibbous
Dec 28
Full
Jan 4
Last Quarter
Jan 11
New
Jan 18
First Quarter

Hourly Weather History & Observations

Time (CST) Temp. Windchill Dew Point Humidity Pressure Visibility Wind Dir Wind Speed Gust Speed Precip Events Conditions
12:13 AM 6.8 °F -8.6 °F 1.4 °F 79% 29.94 in 3.0 mi NW 11.5 mph 17.3 mph N/A Snow Light Snow
12:33 AM 6.8 °F -4.8 °F -0.4 °F 72% 29.94 in 5.0 mi NW 6.9 mph 10.4 mph N/A Snow Light Snow
12:54 AM 6.8 °F -7.8 °F -0.4 °F 72% 29.95 in 7.0 mi NW 10.4 mph 16.1 mph N/A Snow Light Snow
1:13 AM 6.8 °F -6.9 °F -0.4 °F 72% 29.95 in 7.0 mi NW 9.2 mph 16.1 mph N/A Snow Light Snow
1:34 AM 6.8 °F -6.9 °F -0.4 °F 72% 29.95 in 7.0 mi NW 9.2 mph 18.4 mph N/A Snow Light Snow
1:54 AM 6.8 °F -8.6 °F -0.4 °F 72% 29.95 in 7.0 mi NNW 11.5 mph 18.4 mph N/A Snow Light Snow
2:13 AM 5.0 °F -10.0 °F -0.4 °F 78% 29.95 in 10.0 mi NW 10.4 mph - N/A Snow Light Snow
2:34 AM 5.0 °F -9.1 °F -0.4 °F 78% 29.95 in 10.0 mi NW 9.2 mph - N/A Snow Light Snow
2:54 AM 5.0 °F -9.1 °F -0.4 °F 78% 29.95 in 10.0 mi NW 9.2 mph 17.3 mph N/A   Clear
3:13 AM 5.0 °F -6.9 °F -0.4 °F 78% 29.95 in 10.0 mi NW 6.9 mph - N/A Snow Light Snow
3:34 AM 5.0 °F -6.9 °F -0.4 °F 78% 29.95 in 7.0 mi WNW 6.9 mph 17.3 mph N/A Snow Light Snow
3:54 AM 3.2 °F -7.8 °F -0.4 °F 85% 29.96 in 7.0 mi WNW 5.8 mph - N/A Snow Light Snow
4:14 AM 5.0 °F -8.1 °F -0.4 °F 78% 29.96 in 5.0 mi WNW 8.1 mph - N/A Snow Light Snow
4:33 AM 3.2 °F -12.2 °F -2.2 °F 78% 29.97 in 4.0 mi WNW 10.4 mph 17.3 mph N/A Snow Light Snow
4:53 AM 3.2 °F -12.2 °F -2.2 °F 78% 29.97 in 5.0 mi WNW 10.4 mph 16.1 mph N/A Snow Light Snow
5:14 AM 3.2 °F -11.3 °F -2.2 °F 78% 29.96 in 7.0 mi WNW 9.2 mph 20.7 mph N/A Snow Light Snow
5:33 AM 3.2 °F -9.1 °F -2.2 °F 78% 29.96 in 7.0 mi WNW 6.9 mph 16.1 mph N/A Snow Light Snow
5:54 AM 3.2 °F -12.2 °F -2.2 °F 78% 29.96 in 10.0 mi WNW 10.4 mph 16.1 mph N/A   Clear
6:14 AM 3.2 °F -13.1 °F -2.2 °F 78% 29.96 in 10.0 mi NW 11.5 mph 18.4 mph N/A Snow Light Snow
6:33 AM 3.2 °F -13.1 °F -2.2 °F 78% 29.96 in 10.0 mi NW 11.5 mph 16.1 mph N/A Snow Light Snow
6:54 AM 3.2 °F -12.2 °F -2.2 °F 78% 29.96 in 10.0 mi WNW 10.4 mph 19.6 mph N/A   Clear
7:13 AM 3.2 °F -12.2 °F -2.2 °F 78% 29.95 in 10.0 mi NW 10.4 mph 24.2 mph N/A   Clear
7:33 AM 3.2 °F -7.8 °F -2.2 °F 78% 29.95 in 10.0 mi NW 5.8 mph 17.3 mph N/A   Clear
7:54 AM 3.2 °F -10.3 °F -2.2 °F 78% 29.96 in 10.0 mi NW 8.1 mph 16.1 mph N/A   Clear
8:14 AM 3.2 °F -10.3 °F -2.2 °F 78% 29.96 in 10.0 mi NW 8.1 mph - N/A   Clear
8:33 AM 3.2 °F -10.3 °F -2.2 °F 78% 29.97 in 10.0 mi NW 8.1 mph - N/A   Clear
8:54 AM 3.2 °F -7.8 °F -2.2 °F 78% 29.97 in 10.0 mi NNW 5.8 mph - N/A   Clear
9:13 AM 6.8 °F -8.6 °F -2.2 °F 67% 29.98 in 10.0 mi NNW 11.5 mph - N/A   Clear
9:33 AM 6.8 °F -9.3 °F -2.2 °F 67% 29.98 in 10.0 mi NNW 12.7 mph 16.1 mph N/A   Clear
9:54 AM 6.8 °F -11.3 °F -2.2 °F 67% 29.97 in 7.0 mi NW 16.1 mph 20.7 mph N/A Snow Light Snow
10:14 AM 8.6 °F -7.7 °F -0.4 °F 67% 29.97 in 7.0 mi NW 13.8 mph 19.6 mph N/A Snow Light Snow
10:33 AM 8.6 °F -7.7 °F -0.4 °F 67% 29.96 in 5.0 mi NW 13.8 mph 21.9 mph N/A Snow Light Snow
11:14 AM 10.4 °F -2.4 °F -0.4 °F 62% 29.97 in 10.0 mi NW 9.2 mph 16.1 mph N/A   Clear
11:34 AM 10.4 °F -3.3 °F 1.4 °F 67% 29.96 in 10.0 mi NW 10.4 mph 19.6 mph N/A   Clear
11:53 AM 10.4 °F -6.0 °F 1.4 °F 67% 29.95 in 10.0 mi NW 15.0 mph 20.7 mph N/A   Clear
12:13 PM 10.4 °F -7.2 °F 1.4 °F 67% 29.95 in 7.0 mi NW 17.3 mph 25.3 mph N/A Snow Light Snow
12:34 PM 10.4 °F -8.2 °F 1.4 °F 67% 29.94 in 7.0 mi NW 19.6 mph 25.3 mph N/A Snow Light Snow
12:53 PM 12.2 °F -2.5 °F 1.4 °F 62% 29.94 in 10.0 mi NW 12.7 mph 21.9 mph N/A   Clear
1:14 PM 12.2 °F -3.7 °F 1.4 °F 62% 29.93 in 10.0 mi NW 15.0 mph 25.3 mph N/A Snow Light Snow
1:33 PM 12.2 °F -1.0 °F 1.4 °F 62% 29.93 in 10.0 mi NW 10.4 mph 20.7 mph N/A   Clear
1:54 PM 12.2 °F 2.9 °F 1.4 °F 62% 29.93 in 10.0 mi NW 5.8 mph 23.0 mph N/A   Clear
2:14 PM 12.2 °F 1.7 °F 1.4 °F 62% 29.93 in 10.0 mi NW 6.9 mph - N/A   Clear
2:33 PM 10.4 °F -4.8 °F 1.4 °F 67% 29.93 in 10.0 mi NW 12.7 mph 18.4 mph N/A   Clear
2:54 PM 10.4 °F -1.5 °F 1.4 °F 67% 29.93 in 10.0 mi WNW 8.1 mph 16.1 mph N/A   Clear
3:14 PM 10.4 °F -1.5 °F 1.4 °F 67% 29.94 in 10.0 mi WNW 8.1 mph - N/A   Clear
3:33 PM 8.6 °F -5.5 °F 1.4 °F 73% 29.94 in 10.0 mi NW 10.4 mph 18.4 mph N/A   Clear
3:54 PM 8.6 °F -3.7 °F 1.4 °F 73% 29.95 in 10.0 mi WNW 8.1 mph - N/A   Clear
4:14 PM 8.6 °F -6.3 °F 1.4 °F 73% 29.94 in 10.0 mi WNW 11.5 mph 17.3 mph N/A   Clear
4:33 PM 6.8 °F -5.9 °F 1.4 °F 79% 29.95 in 10.0 mi WNW 8.1 mph - N/A   Clear
4:54 PM 6.8 °F -4.8 °F -0.4 °F 72% 29.95 in 10.0 mi WNW 6.9 mph - N/A   Clear
5:13 PM 6.8 °F -5.9 °F -0.4 °F 72% 29.96 in 10.0 mi WNW 8.1 mph - N/A   Clear
5:34 PM 6.8 °F -6.9 °F -0.4 °F 72% 29.96 in 10.0 mi WNW 9.2 mph - N/A   Clear
5:54 PM 6.8 °F -7.8 °F -0.4 °F 72% 29.96 in 10.0 mi NW 10.4 mph 19.6 mph N/A   Clear
6:13 PM 6.8 °F -6.9 °F -0.4 °F 72% 29.96 in 10.0 mi NW 9.2 mph 17.3 mph N/A Snow Light Snow
6:34 PM 5.0 °F -8.1 °F -0.4 °F 78% 29.96 in 7.0 mi NW 8.1 mph - N/A Snow Light Snow
6:53 PM 3.2 °F -13.9 °F -0.4 °F 85% 29.96 in 10.0 mi NNW 12.7 mph 16.1 mph N/A Snow Light Snow
7:13 PM 3.2 °F -15.3 °F -0.4 °F 85% 29.95 in 10.0 mi NW 15.0 mph 18.4 mph N/A   Clear
7:34 PM 3.2 °F -15.3 °F -0.4 °F 85% 29.94 in 10.0 mi NW 15.0 mph 24.2 mph N/A   Clear
7:53 PM 3.2 °F -15.9 °F -0.4 °F 85% 29.93 in 10.0 mi NW 16.1 mph 24.2 mph N/A   Clear
8:13 PM 3.2 °F -14.6 °F -2.2 °F 78% 29.92 in 10.0 mi NW 13.8 mph 23.0 mph N/A   Clear
8:53 PM 3.2 °F -15.9 °F -2.2 °F 78% 29.91 in 10.0 mi NW 16.1 mph 19.6 mph N/A   Clear
9:14 PM 3.2 °F -13.9 °F -2.2 °F 78% 29.92 in 10.0 mi NW 12.7 mph 20.7 mph N/A   Clear
9:34 PM 3.2 °F -11.3 °F -2.2 °F 78% 29.92 in 10.0 mi NW 9.2 mph 17.3 mph N/A   Clear
9:53 PM 3.2 °F -12.2 °F -2.2 °F 78% 29.92 in 10.0 mi NW 10.4 mph 17.3 mph N/A   Clear
10:14 PM 1.4 °F -15.3 °F -2.2 °F 85% 29.91 in 10.0 mi NW 11.5 mph 16.1 mph N/A   Clear
10:33 PM 1.4 °F -13.5 °F -2.2 °F 85% 29.91 in 10.0 mi NNW 9.2 mph - N/A   Clear
10:54 PM 1.4 °F -12.5 °F -4.0 °F 78% 29.91 in 10.0 mi NNW 8.1 mph - N/A   Clear
11:14 PM 1.4 °F -14.5 °F -4.0 °F 78% 29.91 in 10.0 mi NNW 10.4 mph - N/A   Clear
11:33 PM 1.4 °F -14.5 °F -4.0 °F 78% 29.90 in 10.0 mi NNW 10.4 mph - N/A   Clear
11:54 PM 1.4 °F -15.3 °F -4.0 °F 78% 29.89 in 10.0 mi NNW 11.5 mph - N/A   Scattered Clouds